Regional Weather Roundup
Issued by NWS

Home | Current Version | Previous Version | Graphics & Text | Print | Product List | Glossary On
Versions: 1 2 3 4 5 6 7 8 9 10 11 12 13 14 15 16 17 18 19 20 21 22 23 24 25 26 27 28 29 30 31 32 33 34 35 36 37 38 39 40 41 42 43 44 45 46 47 48 49 50
003
ASUS43 KLOT 121308
RWRIL

ILLINOIS REGIONAL WEATHER ROUNDUP
NATIONAL WEATHER SERVICE CHICAGO/ROMEOVILLE IL
700 AM CST FRI FEB 12 2016

NOTE: "FAIR" INDICATES FEW OR NO CLOUDS BELOW 12,000 FEET WITH NO
SIGNIFICANT WEATHER AND/OR OBSTRUCTIONS TO VISIBILITY.

* THESE STATIONS ARE NOT UNDER NWS QUALITY CONTROL. THEY ALSO MAY NOT
  REPORT WEATHER SUCH AS PRECIPITATION OR FOG.

ILZ001-002-007-009-015-016-024-121400-
NORTHWEST ILLINOIS

CITY           SKY/WX    TMP DP  RH WIND       PRES   REMARKS
MOLINE         CLOUDY    22  16  78 W13       30.22R WCI  10
STERLING*      CLOUDY    19  14  79 W12       30.16S WCI   7
SAVANNA*       CLOUDY    19  13  76 NW13      30.20R WCI   6
$$

ILZ003-004-008-010-011-017-018-121400-
NORTH CENTRAL ILLINOIS

CITY           SKY/WX    TMP DP  RH WIND       PRES   REMARKS
ROCKFORD       FLURRIES  17   9  70 W10       30.17F WCI   5
FREEPORT*      FLURRIES  16  11  81 W13G18    30.18R WCI   2
ROCHELLE*      CLOUDY    19  11  72 W12       30.17R WCI   7
DE KALB*       FLURRIES  19  11  71 W12       30.14S WCI   6
$$

ILZ005-006-012>014-019>023-121400-
NORTHEAST ILLINOIS

CITY           SKY/WX    TMP DP  RH WIND       PRES   REMARKS
CHICAGO-OHARE  CLOUDY    19   8  62 W12       30.13F WCI   7
CHICAGO-MIDWAY CLOUDY    21   7  54 W8        30.15F WCI  11
AURORA         CLOUDY    20  11  68 W12       30.15F WCI   8
LANSING*       CLOUDY    20  12  73 W7        30.15F WCI  11
JOLIET*        CLOUDY    21  13  72 W6        30.16F WCI  13
WAUKEGAN       CLOUDY    18   8  65 VRB6G18   30.10F WCI  10
DUPAGE AIRPORT CLOUDY    18   8  65 W10       30.13F WCI   6
KANKAKEE*      CLOUDY    21  17  81 SW9       30.18F WCI  11
WHEELING       CLOUDY    20   7  57 W14       30.14F WCI   7
MORRIS*        MOCLDY    19  12  74 W6        30.16R WCI  10
ROMEOVILLE*    CLOUDY    19  11  71 W9        30.16S WCI   8
NORTHERLY ISL    N/A     21   7  54 W9          N/A  WCI  11
$$

LMZ740>746-121400-
SOUTHERN LAKE MICHIGAN

STATION/POSITION SKY/WX   TEMP    WIND        PRES    VSBY  WAVE
                          AIR SEA DIR/SP/G                  HT/PER
                          (F)     (DEG/KT/KT) (MB)    (MI)  (FT/S)
HARRISON CRIB              22     270/ 13/ 15   N/A
BURNHAM HARBOR             21     270/  8/ 12   N/A
CALUMET HARBOR             20     230/  6/  9 1020.3F
BURNS HARBOR               20     220/ 10/ 13 1021.7F
MICHIGAN CITY              19     180/ 12/ 14   N/A
$$

ILZ025>027-034>036-040-047-049-050-058-095>099-121400-
WEST-CENTRAL ILLINOIS

CITY           SKY/WX    TMP DP  RH WIND       PRES   REMARKS
QUINCY         CLOUDY    19  17  92 NW6       30.24R WCI  11
GALESBURG*     CLOUDY    20  18  89 W8        30.22R WCI  11
MACOMB*        CLOUDY    22  19  91 W8        30.25S WCI  12
JACKSONVILLE*  CLOUDY    23  20  88 W6        30.23S WCI  16
PITTSFIELD*    CLOUDY    22  20  91 NW3       30.25R
$$

ILZ028>032-037-038-041>044-048-051>054-059>061-121400-
CENTRAL ILLINOIS

CITY           SKY/WX    TMP DP  RH WIND       PRES   REMARKS
PONTIAC        CLOUDY    23  19  87 W9        30.20S WCI  13
BLOOMINGTON    CLOUDY    21  19  92 W9        30.20R WCI  11
DECATUR        CLOUDY    22  18  85 W6        30.21S WCI  14
PEORIA         CLOUDY    22  16  78 W5        30.22S WCI  16
LACON*         CLOUDY    22  15  76 W7        30.20F WCI  13
LINCOLN*       CLOUDY    23  20  91 W3        30.22S
SPRINGFIELD    CLOUDY    22  18  85 NW6       30.23R WCI  14
TAYLORVILLE    CLOUDY    23  21  93 CALM      30.23S
$$

ILZ033-039-045-046-055>057-062-063-121400-
EAST-CENTRAL ILLINOIS

CITY           SKY/WX    TMP DP  RH WIND       PRES   REMARKS
CHAMPAIGN      CLOUDY    21  18  88 W6        30.20S WCI  13
RANTOUL*       CLOUDY    23  19  87 W5        30.20R WCI  16
MATTOON        CLOUDY    18  14  84 CALM      30.21R
PARIS*         CLOUDY    21  16  79 W6        30.22S WCI  14
$$

ILZ079-100>102-121400-
SOUTHWEST ILLINOIS

CITY           SKY/WX    TMP DP  RH WIND       PRES   REMARKS
ALTON          CLOUDY    23  21  93 W6        30.24S WCI  16
BELLEVILLE     MOCLDY    25  24  94 CALM      30.23R
CAHOKIA*       CLOUDY    27  21  78 CALM      30.24S
SPARTA*        CLOUDY    26  22  85 CALM      30.24S
$$

ILZ064>066-069>071-074>076-080>082-084>086-088>090-092>094-121400-
SOUTH-CENTRAL ILLINOIS

CITY           SKY/WX    TMP DP  RH WIND       PRES   REMARKS
CARBONDALE     CLOUDY    26  22  84 CALM      30.23S
CAIRO*         CLOUDY    29  27  95 N6        30.23R WCI  22
EFFINGHAM*     CLOUDY    23  21  91 W3        30.24S
MT. VERNON     CLOUDY    25  18  74 CALM      30.24R
CENTRALIA*     CLOUDY    25  22  90 CALM      30.23R
SALEM*         CLOUDY    25  21  83 CALM      30.23R
METROPOLIS*    CLOUDY    28  26  95 N5        30.24R WCI  22
$$

ILZ067-068-072-073-078-083-087-091-121400-
SOUTHEAST ILLINOIS

CITY           SKY/WX    TMP DP  RH WIND       PRES   REMARKS
LAWRENCEVILLE  LGT SNOW  22  18  85 NW3       30.24R FOG
FLORA*         CLOUDY    25  22  89 CALM      30.24S
FAIRFIELD*     CLOUDY    24  22  92 N3        30.22S
HARRISBURG*    CLOUDY    26  24  93 CALM      30.25R
ROBINSON*      FLURRIES  21  18  86 CALM      30.24S
CARMI*         LGT SNOW  24  23  96 CALM      30.23R
$$

ABBREVIATIONS USED IN REMARKS
   TC - TEMPERATURE IN CELSIUS
  WCI - WIND CHILL INDEX
   HX - HEAT INDEX
  VSB - VISIBILITY
$$





USA.gov is the U.S. government's official web portal to all federal, state and local government web resources and services.